This is the latest recevied weather packets stored in our database for station/object SQ5LTL-2. If no packets are shown the sender has not sent any weather packets the latest 10 day(s).
| Time | Temp. | Humidity | Pressure | Rain* | Wind** | Luminosity | Snow |
|---|---|---|---|---|---|---|---|
| 1777761017 | 11.67° C | 70% | 1020.7 hPa | 0 mm | - | 0 W/m² | - |
| 1777760736 | 11.67° C | 70% | 1020.8 hPa | 0 mm | - | 0 W/m² | - |
| 1777760434 | 11.67° C | 69% | 1020.7 hPa | 0 mm | - | 0 W/m² | - |
| 1777760132 | 11.67° C | 69% | 1020.7 hPa | 0 mm | - | 0 W/m² | - |
| 1777759831 | 11.67° C | 69% | 1020.8 hPa | 0 mm | - | 0 W/m² | - |
| 1777759531 | 11.67° C | 70% | 1020.8 hPa | 0 mm | - | 0 W/m² | - |
| 1777759228 | 11.67° C | 69% | 1020.8 hPa | 0 mm | - | 0 W/m² | - |
| 1777758927 | 12.22° C | 68% | 1020.9 hPa | 0 mm | - | 0 W/m² | - |
| 1777758625 | 11.67° C | 68% | 1020.8 hPa | 0 mm | - | 0 W/m² | - |
| 1777758324 | 12.22° C | 68% | 1020.9 hPa | 0 mm | - | 0 W/m² | - |
| 1777758022 | 12.22° C | 67% | 1020.9 hPa | 0 mm | - | 0 W/m² | - |
| 1777757721 | 12.22° C | 67% | 1020.8 hPa | 0 mm | - | 0 W/m² | - |
| 1777757419 | 12.78° C | 65% | 1021 hPa | 0 mm | - | 0 W/m² | - |
| 1777757117 | 12.78° C | 65% | 1020.9 hPa | 0 mm | - | 0 W/m² | - |
| 1777756816 | 12.22° C | 67% | 1021 hPa | 0 mm | - | 0 W/m² | - |
| 1777756535 | 12.22° C | 67% | 1021 hPa | 0 mm | - | 0 W/m² | - |
| 1777756233 | 12.78° C | 66% | 1021 hPa | 0 mm | - | 0 W/m² | - |
| 1777755932 | 12.78° C | 65% | 1021.1 hPa | 0 mm | - | 0 W/m² | - |
| 1777755630 | 13.33° C | 64% | 1021 hPa | 0 mm | - | 0 W/m² | - |
| 1777755329 | 13.33° C | 63% | 1021.1 hPa | 0 mm | - | 0 W/m² | - |
| 1777755028 | 13.33° C | 63% | 1021.1 hPa | 0 mm | - | 0 W/m² | - |
| 1777754727 | 13.89° C | 62% | 1021.2 hPa | 0 mm | - | 0 W/m² | - |
| 1777754425 | 13.89° C | 62% | 1021.2 hPa | 0 mm | - | 0 W/m² | - |
| 1777754123 | 13.33° C | 63% | 1021.1 hPa | 0 mm | - | 0 W/m² | - |
| 1777753822 | 13.89° C | 62% | 1021.2 hPa | 0 mm | - | 0 W/m² | - |
* Rain latest hour (hover to see other rain measurements)
** Current wind speed in m/s (hover to see current wind gust speed)